����������;��������(kVARh)
2016-04-11 00:00;0,1
2016-04-11 00:15;0,15
2016-04-11 00:30;0,55
2016-04-11 00:45;0,2
2016-04-11 01:00;0,1
2016-04-11 01:15;0
2016-04-11 01:30;0,1
2016-04-11 01:45;0,1
2016-04-11 02:00;0,55
2016-04-11 02:15;0,05
2016-04-11 02:30;0,1
2016-04-11 02:45;0,4
2016-04-11 03:00;0,3
2016-04-11 03:15;0
2016-04-11 03:30;0,75
2016-04-11 03:45;0,5
2016-04-11 04:00;0,05
2016-04-11 04:15;0,3
2016-04-11 04:30;0,1
2016-04-11 04:45;0,6
2016-04-11 05:00;0,45
2016-04-11 05:15;0
2016-04-11 05:30;0,15
2016-04-11 05:45;0,1
2016-04-11 06:00;0,8
2016-04-11 06:15;1,1
2016-04-11 06:30;1,45
2016-04-11 06:45;0,65
2016-04-11 07:00;0,45
2016-04-11 07:15;0,9
2016-04-11 07:30;0,15
2016-04-11 07:45;0,6
2016-04-11 08:00;10,8
2016-04-11 08:15;6,7
2016-04-11 08:30;7,7
2016-04-11 08:45;13,45
2016-04-11 09:00;11,45
2016-04-11 09:15;12,55
2016-04-11 09:30;14,3
2016-04-11 09:45;22,85
2016-04-11 10:00;33,8
2016-04-11 10:15;33,35
2016-04-11 10:30;34,85
2016-04-11 10:45;37,3
2016-04-11 11:00;40,2
2016-04-11 11:15;35,65
2016-04-11 11:30;38,4
2016-04-11 11:45;39,65
2016-04-11 12:00;39,1
2016-04-11 12:15;35,85
2016-04-11 12:30;25,05
2016-04-11 12:45;26,4
2016-04-11 13:00;37,55
2016-04-11 13:15;39,95
2016-04-11 13:30;44,55
2016-04-11 13:45;43,8
2016-04-11 14:00;45,45
2016-04-11 14:15;45,1
2016-04-11 14:30;45,65
2016-04-11 14:45;44,55
2016-04-11 15:00;38,9
2016-04-11 15:15;36,7
2016-04-11 15:30;37,55
2016-04-11 15:45;36,65
2016-04-11 16:00;34,4
2016-04-11 16:15;34,2
2016-04-11 16:30;32,65
2016-04-11 16:45;30,85
2016-04-11 17:00;28,3
2016-04-11 17:15;26,85
2016-04-11 17:30;26,75
2016-04-11 17:45;24,4
2016-04-11 18:00;22,5
2016-04-11 18:15;19,9
2016-04-11 18:30;19,6
2016-04-11 18:45;22,7
2016-04-11 19:00;20,8
2016-04-11 19:15;16,45
2016-04-11 19:30;1,55
2016-04-11 19:45;3
2016-04-11 20:00;1,75
2016-04-11 20:15;4,25
2016-04-11 20:30;0,2
2016-04-11 20:45;1,85
2016-04-11 21:00;3,55
2016-04-11 21:15;2,3
2016-04-11 21:30;5,45
2016-04-11 21:45;6,95
2016-04-11 22:00;4,95
2016-04-11 22:15;0,95
2016-04-11 22:30;0,05
2016-04-11 22:45;0
2016-04-11 23:00;0
2016-04-11 23:15;0
2016-04-11 23:30;0,05
2016-04-11 23:45;0
2016-04-12 00:00;0
2016-04-12 00:15;0
2016-04-12 00:30;0
2016-04-12 00:45;0
2016-04-12 01:00;0
2016-04-12 01:15;0
2016-04-12 01:30;0
2016-04-12 01:45;0
2016-04-12 02:00;0
2016-04-12 02:15;0
2016-04-12 02:30;0
2016-04-12 02:45;0
2016-04-12 03:00;0
2016-04-12 03:15;0
2016-04-12 03:30;0
2016-04-12 03:45;0
2016-04-12 04:00;0
2016-04-12 04:15;0
2016-04-12 04:30;0
2016-04-12 04:45;0
2016-04-12 05:00;0
2016-04-12 05:15;0
2016-04-12 05:30;0
2016-04-12 05:45;0
2016-04-12 06:00;0
2016-04-12 06:15;0
2016-04-12 06:30;0
2016-04-12 06:45;0
2016-04-12 07:00;0
2016-04-12 07:15;0
2016-04-12 07:30;0
2016-04-12 07:45;0
2016-04-12 08:00;0
2016-04-12 08:15;0
2016-04-12 08:30;1
2016-04-12 08:45;4,6
2016-04-12 09:00;6,4
2016-04-12 09:15;16,95
2016-04-12 09:30;18,55
2016-04-12 09:45;21,7
2016-04-12 10:00;21,1
2016-04-12 10:15;22,95
2016-04-12 10:30;26,4
2016-04-12 10:45;27,7
2016-04-12 11:00;23
2016-04-12 11:15;24,45
2016-04-12 11:30;26,3
2016-04-12 11:45;25,25
2016-04-12 12:00;26,3
2016-04-12 12:15;24,75
2016-04-12 12:30;26,05
2016-04-12 12:45;24,3
2016-04-12 13:00;25,1
2016-04-12 13:15;26,1
2016-04-12 13:30;23,35
2016-04-12 13:45;23,65
2016-04-12 14:00;22,65
2016-04-12 14:15;23,4
2016-04-12 14:30;23,7
2016-04-12 14:45;24
2016-04-12 15:00;24,5
2016-04-12 15:15;26,55
2016-04-12 15:30;25
2016-04-12 15:45;27,6
2016-04-12 16:00;24,65
2016-04-12 16:15;24,6
2016-04-12 16:30;22,45
2016-04-12 16:45;22,45
2016-04-12 17:00;24,3
2016-04-12 17:15;21,7
2016-04-12 17:30;20,55
2016-04-12 17:45;18,3
2016-04-12 18:00;17,45
2016-04-12 18:15;11,05
2016-04-12 18:30;8,45
2016-04-12 18:45;9,45
2016-04-12 19:00;8,3
2016-04-12 19:15;7,35
2016-04-12 19:30;4,5
2016-04-12 19:45;3
2016-04-12 20:00;1
2016-04-12 20:15;0
2016-04-12 20:30;0,4
2016-04-12 20:45;0,35
2016-04-12 21:00;1,7
2016-04-12 21:15;2,75
2016-04-12 21:30;2,5
2016-04-12 21:45;0,9
2016-04-12 22:00;0,9
2016-04-12 22:15;2,5
2016-04-12 22:30;2,15
2016-04-12 22:45;0
2016-04-12 23:00;0,05
2016-04-12 23:15;0,1
2016-04-12 23:30;0
2016-04-12 23:45;0
2016-04-13 00:00;0
2016-04-13 00:15;0
2016-04-13 00:30;0
2016-04-13 00:45;0
2016-04-13 01:00;0
2016-04-13 01:15;0
2016-04-13 01:30;0
2016-04-13 01:45;0
2016-04-13 02:00;0
2016-04-13 02:15;0,05
2016-04-13 02:30;0
2016-04-13 02:45;0
2016-04-13 03:00;0
2016-04-13 03:15;0
2016-04-13 03:30;0
2016-04-13 03:45;0
2016-04-13 04:00;0
2016-04-13 04:15;0
2016-04-13 04:30;0
2016-04-13 04:45;0,05
2016-04-13 05:00;0
2016-04-13 05:15;0
2016-04-13 05:30;0
2016-04-13 05:45;0
2016-04-13 06:00;0
2016-04-13 06:15;0
2016-04-13 06:30;0
2016-04-13 06:45;0,05
2016-04-13 07:00;0
2016-04-13 07:15;0,05
2016-04-13 07:30;0
2016-04-13 07:45;0
2016-04-13 08:00;0,05
2016-04-13 08:15;0,1
2016-04-13 08:30;0,9
2016-04-13 08:45;0,2
2016-04-13 09:00;0,55
2016-04-13 09:15;1,35
2016-04-13 09:30;4
2016-04-13 09:45;9,35
2016-04-13 10:00;12,3
2016-04-13 10:15;15,3
2016-04-13 10:30;20,1
2016-04-13 10:45;30,55
2016-04-13 11:00;33,85
2016-04-13 11:15;35,8
2016-04-13 11:30;34,6
2016-04-13 11:45;32,6
2016-04-13 12:00;33,15
2016-04-13 12:15;33,35
2016-04-13 12:30;33,1
2016-04-13 12:45;31,45
2016-04-13 13:00;31,6
2016-04-13 13:15;29,45
2016-04-13 13:30;32,45
2016-04-13 13:45;31,75
2016-04-13 14:00;32,7
2016-04-13 14:15;31,5
2016-04-13 14:30;33,1
2016-04-13 14:45;31,95
2016-04-13 15:00;34,5
2016-04-13 15:15;35,95
2016-04-13 15:30;37,4
2016-04-13 15:45;35,85
2016-04-13 16:00;32,95
2016-04-13 16:15;34,75
2016-04-13 16:30;33,55
2016-04-13 16:45;34,55
2016-04-13 17:00;31,85
2016-04-13 17:15;32,3
2016-04-13 17:30;29,5
2016-04-13 17:45;30,45
2016-04-13 18:00;29,8
2016-04-13 18:15;27,6
2016-04-13 18:30;14,9
2016-04-13 18:45;5,7
2016-04-13 19:00;3,7
2016-04-13 19:15;2,55
2016-04-13 19:30;0,35
2016-04-13 19:45;0,1
2016-04-13 20:00;0
2016-04-13 20:15;0,15
2016-04-13 20:30;0
2016-04-13 20:45;0
2016-04-13 21:00;0
2016-04-13 21:15;0,8
2016-04-13 21:30;0,6
2016-04-13 21:45;0,2
2016-04-13 22:00;0
2016-04-13 22:15;1,2
2016-04-13 22:30;1,55
2016-04-13 22:45;8,15
2016-04-13 23:00;6,2
2016-04-13 23:15;8,2
2016-04-13 23:30;9,5
2016-04-13 23:45;7,7
2016-04-14 00:00;2,45
2016-04-14 00:15;0,5
2016-04-14 00:30;0,25
2016-04-14 00:45;0,1
2016-04-14 01:00;0
2016-04-14 01:15;0
2016-04-14 01:30;0,15
2016-04-14 01:45;0,05
2016-04-14 02:00;0
2016-04-14 02:15;0,1
2016-04-14 02:30;0,05
2016-04-14 02:45;0,05
2016-04-14 03:00;0,3
2016-04-14 03:15;0,3
2016-04-14 03:30;0,05
2016-04-14 03:45;0,2
2016-04-14 04:00;0,45
2016-04-14 04:15;0,25
2016-04-14 04:30;0,6
2016-04-14 04:45;1,55
2016-04-14 05:00;1,1
2016-04-14 05:15;0,45
2016-04-14 05:30;0,05
2016-04-14 05:45;0
2016-04-14 06:00;0,85
2016-04-14 06:15;0,8
2016-04-14 06:30;0,35
2016-04-14 06:45;0,35
2016-04-14 07:00;0,35
2016-04-14 07:15;0,25
2016-04-14 07:30;4,7
2016-04-14 07:45;4,7
2016-04-14 08:00;7,65
2016-04-14 08:15;7,95
2016-04-14 08:30;8,7
2016-04-14 08:45;7,1
2016-04-14 09:00;5,5
2016-04-14 09:15;8,55
2016-04-14 09:30;16,2
2016-04-14 09:45;16,5
2016-04-14 10:00;17,65
2016-04-14 10:15;19,45
2016-04-14 10:30;19
2016-04-14 10:45;23,9
2016-04-14 11:00;25,75
2016-04-14 11:15;25,6
2016-04-14 11:30;24,9
2016-04-14 11:45;25,5
2016-04-14 12:00;25,65
2016-04-14 12:15;25,5
2016-04-14 12:30;25,1
2016-04-14 12:45;25,85
2016-04-14 13:00;24,55
2016-04-14 13:15;23,35
2016-04-14 13:30;24,1
2016-04-14 13:45;24,85
2016-04-14 14:00;26,65
2016-04-14 14:15;25,55
2016-04-14 14:30;25,75
2016-04-14 14:45;24,95
2016-04-14 15:00;25
2016-04-14 15:15;26,45
2016-04-14 15:30;27,45
2016-04-14 15:45;26,4
2016-04-14 16:00;25,55
2016-04-14 16:15;27,2
2016-04-14 16:30;27,55
2016-04-14 16:45;27
2016-04-14 17:00;26,85
2016-04-14 17:15;23,2
2016-04-14 17:30;19,9
2016-04-14 17:45;16,45
2016-04-14 18:00;13,15
2016-04-14 18:15;13,2
2016-04-14 18:30;13,4
2016-04-14 18:45;13,65
2016-04-14 19:00;12,4
2016-04-14 19:15;10,95
2016-04-14 19:30;9,3
2016-04-14 19:45;6,55
2016-04-14 20:00;7,85
2016-04-14 20:15;6
2016-04-14 20:30;3,5
2016-04-14 20:45;3,4
2016-04-14 21:00;2,85
2016-04-14 21:15;4,15
2016-04-14 21:30;4,95
2016-04-14 21:45;5,4
2016-04-14 22:00;6,1
2016-04-14 22:15;8,3
2016-04-14 22:30;10,7
2016-04-14 22:45;12,75
2016-04-14 23:00;11,35
2016-04-14 23:15;4,2
2016-04-14 23:30;0
2016-04-14 23:45;0,2
2016-04-15 00:00;1
2016-04-15 00:15;0,05
2016-04-15 00:30;0
2016-04-15 00:45;0
2016-04-15 01:00;0
2016-04-15 01:15;0
2016-04-15 01:30;0
2016-04-15 01:45;0
2016-04-15 02:00;0
2016-04-15 02:15;0
2016-04-15 02:30;0
2016-04-15 02:45;0,05
2016-04-15 03:00;0
2016-04-15 03:15;0
2016-04-15 03:30;0,05
2016-04-15 03:45;0
2016-04-15 04:00;0
2016-04-15 04:15;0
2016-04-15 04:30;0
2016-04-15 04:45;0
2016-04-15 05:00;0,05
2016-04-15 05:15;0
2016-04-15 05:30;0
2016-04-15 05:45;0
2016-04-15 06:00;0
2016-04-15 06:15;0
2016-04-15 06:30;0,1
2016-04-15 06:45;0,9
2016-04-15 07:00;0,3
2016-04-15 07:15;0,05
2016-04-15 07:30;0
2016-04-15 07:45;0,4
2016-04-15 08:00;1,9
2016-04-15 08:15;3,05
2016-04-15 08:30;0,15
2016-04-15 08:45;0,7
2016-04-15 09:00;4,35
2016-04-15 09:15;8,3
2016-04-15 09:30;9,2
2016-04-15 09:45;8,7
2016-04-15 10:00;10
2016-04-15 10:15;10,75
2016-04-15 10:30;12,05
2016-04-15 10:45;13,9
2016-04-15 11:00;18,55
2016-04-15 11:15;22,6
2016-04-15 11:30;20,1
2016-04-15 11:45;18,85
2016-04-15 12:00;19,8
2016-04-15 12:15;19,1
2016-04-15 12:30;21,45
2016-04-15 12:45;28,9
2016-04-15 13:00;28,45
2016-04-15 13:15;27,05
2016-04-15 13:30;30,6
2016-04-15 13:45;31,2
2016-04-15 14:00;33,85
2016-04-15 14:15;34,05
2016-04-15 14:30;34,65
2016-04-15 14:45;34,25
2016-04-15 15:00;32,05
2016-04-15 15:15;29,8
2016-04-15 15:30;22,1
2016-04-15 15:45;22,5
2016-04-15 16:00;21,9
2016-04-15 16:15;19,7
2016-04-15 16:30;18,8
2016-04-15 16:45;18,55
2016-04-15 17:00;15,05
2016-04-15 17:15;13,6
2016-04-15 17:30;12,55
2016-04-15 17:45;9,1
2016-04-15 18:00;4,75
2016-04-15 18:15;3,45
2016-04-15 18:30;3,65
2016-04-15 18:45;4,3
2016-04-15 19:00;5,2
2016-04-15 19:15;4,65
2016-04-15 19:30;3,15
2016-04-15 19:45;2,6
2016-04-15 20:00;3,55
2016-04-15 20:15;0,2
2016-04-15 20:30;0
2016-04-15 20:45;0,05
2016-04-15 21:00;0
2016-04-15 21:15;0,05
2016-04-15 21:30;0,4
2016-04-15 21:45;1,05
2016-04-15 22:00;2,6
2016-04-15 22:15;4,1
2016-04-15 22:30;6,5
2016-04-15 22:45;7,2
2016-04-15 23:00;7,35
2016-04-15 23:15;0,15
2016-04-15 23:30;0
2016-04-15 23:45;0
2016-04-16 00:00;0,05
2016-04-16 00:15;0
2016-04-16 00:30;0,05
2016-04-16 00:45;0
2016-04-16 01:00;0
2016-04-16 01:15;0
2016-04-16 01:30;0,05
2016-04-16 01:45;0
2016-04-16 02:00;0,1
2016-04-16 02:15;0,05
2016-04-16 02:30;0
2016-04-16 02:45;0,25
2016-04-16 03:00;0,05
2016-04-16 03:15;0,05
2016-04-16 03:30;0,05
2016-04-16 03:45;0
2016-04-16 04:00;0,85
2016-04-16 04:15;0,1
2016-04-16 04:30;0,05
2016-04-16 04:45;0,1
2016-04-16 05:00;0,8
2016-04-16 05:15;0,05
2016-04-16 05:30;0,1
2016-04-16 05:45;0,05
2016-04-16 06:00;0,05
2016-04-16 06:15;0,15
2016-04-16 06:30;0,05
2016-04-16 06:45;0,15
2016-04-16 07:00;0,35
2016-04-16 07:15;0,35
2016-04-16 07:30;0,1
2016-04-16 07:45;0
2016-04-16 08:00;0
2016-04-16 08:15;0
2016-04-16 08:30;0
2016-04-16 08:45;0,05
2016-04-16 09:00;0
2016-04-16 09:15;0,1
2016-04-16 09:30;0,05
2016-04-16 09:45;0,05
2016-04-16 10:00;0,05
2016-04-16 10:15;0,05
2016-04-16 10:30;0,05
2016-04-16 10:45;0
2016-04-16 11:00;0
2016-04-16 11:15;0
2016-04-16 11:30;0
2016-04-16 11:45;0,05
2016-04-16 12:00;0
2016-04-16 12:15;0
2016-04-16 12:30;0
2016-04-16 12:45;0
2016-04-16 13:00;0
2016-04-16 13:15;0
2016-04-16 13:30;0
2016-04-16 13:45;0
2016-04-16 14:00;0
2016-04-16 14:15;0,15
2016-04-16 14:30;0
2016-04-16 14:45;0
2016-04-16 15:00;0,05
2016-04-16 15:15;0,2
2016-04-16 15:30;0,15
2016-04-16 15:45;0,6
2016-04-16 16:00;0,2
2016-04-16 16:15;1,45
2016-04-16 16:30;1,8
2016-04-16 16:45;2,2
2016-04-16 17:00;1,45
2016-04-16 17:15;1,6
2016-04-16 17:30;1,6
2016-04-16 17:45;2,25
2016-04-16 18:00;1,95
2016-04-16 18:15;1,4
2016-04-16 18:30;1,45
2016-04-16 18:45;2,75
2016-04-16 19:00;3,8
2016-04-16 19:15;2,7
2016-04-16 19:30;4,85
2016-04-16 19:45;5,2
2016-04-16 20:00;6,75
2016-04-16 20:15;4,3
2016-04-16 20:30;1,65
2016-04-16 20:45;0,1
2016-04-16 21:00;0,75
2016-04-16 21:15;0,3
2016-04-16 21:30;1,1
2016-04-16 21:45;0,2
2016-04-16 22:00;0,45
2016-04-16 22:15;2,25
2016-04-16 22:30;2,65
2016-04-16 22:45;1,1
2016-04-16 23:00;1,35
2016-04-16 23:15;0,35
2016-04-16 23:30;0,05
2016-04-16 23:45;0
2016-04-17 00:00;0
2016-04-17 00:15;0,05
2016-04-17 00:30;0
2016-04-17 00:45;0
2016-04-17 01:00;0
2016-04-17 01:15;0
2016-04-17 01:30;0
2016-04-17 01:45;0,1
2016-04-17 02:00;0
2016-04-17 02:15;0,15
2016-04-17 02:30;0
2016-04-17 02:45;0
2016-04-17 03:00;0
2016-04-17 03:15;0
2016-04-17 03:30;0
2016-04-17 03:45;0
2016-04-17 04:00;0,2
2016-04-17 04:15;0
2016-04-17 04:30;0
2016-04-17 04:45;0
2016-04-17 05:00;0,05
2016-04-17 05:15;0,05
2016-04-17 05:30;0
2016-04-17 05:45;0,05
2016-04-17 06:00;0,45
2016-04-17 06:15;1,1
2016-04-17 06:30;0,2
2016-04-17 06:45;0,75
2016-04-17 07:00;2,65
2016-04-17 07:15;2,65
2016-04-17 07:30;1,2
2016-04-17 07:45;1
2016-04-17 08:00;0,3
2016-04-17 08:15;0,15
2016-04-17 08:30;0,05
2016-04-17 08:45;0,1
2016-04-17 09:00;0
2016-04-17 09:15;0
2016-04-17 09:30;0
2016-04-17 09:45;0
2016-04-17 10:00;0
2016-04-17 10:15;0
2016-04-17 10:30;0
2016-04-17 10:45;0
2016-04-17 11:00;0
2016-04-17 11:15;0
2016-04-17 11:30;0
2016-04-17 11:45;0,35
2016-04-17 12:00;0,1
2016-04-17 12:15;0,1
2016-04-17 12:30;0,35
2016-04-17 12:45;0,15
2016-04-17 13:00;0,05
2016-04-17 13:15;0,15
2016-04-17 13:30;0
2016-04-17 13:45;0,05
2016-04-17 14:00;0
2016-04-17 14:15;0,05
2016-04-17 14:30;0,1
2016-04-17 14:45;0,25
2016-04-17 15:00;0,05
2016-04-17 15:15;0,1
2016-04-17 15:30;0
2016-04-17 15:45;1,15
2016-04-17 16:00;2,35
2016-04-17 16:15;3,25
2016-04-17 16:30;4,05
2016-04-17 16:45;3,5
2016-04-17 17:00;1,3
2016-04-17 17:15;0,1
2016-04-17 17:30;0,2
2016-04-17 17:45;0,6
2016-04-17 18:00;0,55
2016-04-17 18:15;0,1
2016-04-17 18:30;0,05
2016-04-17 18:45;0
2016-04-17 19:00;0
2016-04-17 19:15;0
2016-04-17 19:30;0
2016-04-17 19:45;0,15
2016-04-17 20:00;0,05
2016-04-17 20:15;0
2016-04-17 20:30;0
2016-04-17 20:45;0
2016-04-17 21:00;0
2016-04-17 21:15;0
2016-04-17 21:30;0
2016-04-17 21:45;0
2016-04-17 22:00;0
2016-04-17 22:15;0,05
2016-04-17 22:30;0,05
2016-04-17 22:45;0,15
2016-04-17 23:00;0,05
2016-04-17 23:15;0
2016-04-17 23:30;0,05
2016-04-17 23:45;0,2

